User: anonymous   Login
Location: Unspecified
(0.0000°N, 0.0000°E)
Time: 16:03:12
(UTC+01:00)
Language:

Meteor 1-10 Rocket - Orbit

View from above orbital plane
View from above orbital plane
View from above satellite
View from above satellite

Ground track
Ground track

The orbit data is extracted from the following two-line orbital elements,

1 05732U 71120B   16042.10781039 -.00000136  00000-0 -89623-4 0  9994
2 05732  81.2488 238.4609 0051045 348.2700  11.7275 14.05910454269789
Epoch (UTC): 11 February 2016 02:35:14
Eccentricity: 0.0051045
inclination: 81.2488°
perigee height: 836 km
apogee height: 910 km
right ascension of ascending node: 238.4609°
argument of perigee: 348.2700°
revolutions per day: 14.05910454
mean anomaly at epoch: 11.7275°
orbit number at epoch: 26978

The dashed part of the orbit path shows where the satellite is in the earth's shadow,  

DLR